Regional Weather Roundup
Issued by NWS Huntsville, AL

Home | Current Version | Previous Version | Text Only | Print | Product List | Glossary On
Versions: 1 2 3 4 5 6 7 8 9 10 11 12 13 14 15 16 17 18 19 20 21 22 23 24 25 26 27
000
ASUS44 KHUN 010310
RWRHUN

WEATHER ROUNDUP FOR THE TENNESSEE VALLEY
NATIONAL WEATHER SERVICE HUNTSVILLE AL
1000 PM CDT TUE MAY 31 2016

ALZ001>004-010400-
NORTHWEST ALABAMA

CITY           SKY/WX    TMP DP  RH WIND       PRES   REMARKS
COURTLAND HCN    N/A     72 N/A N/A CALM        N/A
RUSSELLVILLE     N/A     70 N/A N/A MISG        N/A
SHOALS AIRPORT CLEAR     73  66  78 CALM      29.96R
SHOALS TVA RES   N/A     72 N/A N/A MISG        N/A
$$

ALZ005>007-016-010400-
NORTH CENTRAL ALABAMA

CITY           SKY/WX    TMP DP  RH WIND       PRES   REMARKS
CULLMAN AG STN   N/A     72 N/A N/A CALM        N/A
DECATUR AP     CLEAR     73  67  81 CALM      29.96R
HUNTSVILLE AP  PTCLDY    77  64  64 CALM      29.96R
HUN NWS/UAH      N/A     81  64  55 CALM        N/A
MERIDIANVILLE  HAZE      73  61  64 CALM      29.96R VSB 1/2
REDSTONE ARSN  CLOUDY    74  66  76 CALM      29.95R
VINEMONT AP    FAIR      69  65  86 CALM      29.99R
$$

ALZ008>010-010400-
NORTHEAST ALABAMA

CITY           SKY/WX    TMP DP  RH WIND       PRES   REMARKS
FORT PAYNE     CLEAR     70  61  73 CALM      29.96R
SCOTTSBORO AP  CLEAR     72  64  78 CALM      29.96R
SCOTTSBORO HCN   N/A     70 N/A N/A MISG        N/A
VALLEY HEAD      N/A     68 N/A N/A MISG        N/A
$$

TNZ076-096-097-010400-
SOUTHEASTERN MIDDLE TENNESSEE

CITY           SKY/WX    TMP DP  RH WIND       PRES   REMARKS
TULLAHOMA      CLEAR     72  66  83 CALM      29.98R
WINCHESTER     CLEAR     75  66  73 CALM      29.97R
$$

...SURROUNDING SITES...

CITY           SKY/WX    TMP DP  RH WIND       PRES   REMARKS
ATLANTA        MOCLDY    80  64  58 CALM      29.97R
ANNISTON       PTCLDY    73  65  75 CALM      29.96R
BIRMINGHAM     PTCLDY    74  71  91 CALM      29.98R
CHATTANOOGA    MOCLDY    79  63  57 CALM      29.95R
DALTON         CLEAR     70  64  83 CALM      29.95R
GADSDEN        CLEAR     71  68  90 CALM      29.96R
GOLDEN TRNGL   PTCLDY    72  66  83 SE5       29.95R
HALEYVILLE     FAIR      69  66  90 CALM      29.99R
JACKSON TN     CLEAR     71  67  87 SW3       29.94R
MEMPHIS        PTCLDY    77  68  73 CALM      29.93R
NASHVILLE      CLEAR     78  60  53 N3        29.96R
OXFORD MS      FAIR      68  66  94 CALM      29.96R
ROME           CLEAR     74  64  71 CALM      29.94R
SAVANNAH       CLEAR     70  68  94 CALM      29.94R
TUPELO         CLEAR     76  68  76 CALM      29.93R
TUSCALOOSA     MOCLDY    70  69  97 S6        29.96R
$$

...GULF COAST WEATHER...

CITY           SKY/WX    TMP DP  RH WIND       PRES   REMARKS
GULFPORT       CLEAR     80  70  71 SW3       29.93R
PASCAGOULA     CLEAR     72  70  93 CALM      29.94R
MOBILE         PTCLDY    71  71 100 CALM      29.96R
GULF SHORES    CLEAR     71  71 100 CALM      29.94R
PENSACOLA      MOCLDY    74  69  85 N6        29.94R
DESTIN         MOCLDY    81  75  82 CALM      29.95R
PANAMA CITY    MOCLDY    79  75  86 SW7       29.95R
APPALACHICOLA  PTCLDY    75  73  93 CALM      29.95R
$$





USA.gov is the U.S. government's official web portal to all federal, state and local government web resources and services.